Location: Unspecified
(0.0000°N, 0.0000°E)
Time: 09:18:02
(UTC+00:00)

Vanguard 3 - Pass Details

Date: 27 September 2023
Orbit: 507 x 3241 km, 33.3° (Epoch: 06 December)

Event Time Altitude Azimuth Distance (km) Brightness Sun altitude
Rises 09:54:52 0° 217° (SW) 5,735 11.3 60.9°
Reaches altitude 10° 10:00:48 10° 198° (SSW) 5,242 11.3 62.4°
Maximum altitude 10:10:11 17° 162° (SSE) 5,240 11.6 64.7°
Drops below altitude 10° 10:21:00 10° 128° (SE) 6,157 12.1 67.4°
Sets 10:29:03 0° 110° (ESE) 7,168 12.2 69.4°
